This is the latest recevied weather packets stored in our database for station/object NN3A-3. If no packets are shown the sender has not sent any weather packets the latest 10 day(s).
| Time | Temp. | Humidity | Pressure | Rain* | Wind** | Luminosity | Snow |
|---|---|---|---|---|---|---|---|
| 1778086646 | 15.56° C | 97% | 1006.2 hPa | 0 mm | - | - | - |
| 1778086346 | 15.56° C | 97% | 1005.9 hPa | 0 mm | - | - | - |
| 1778086046 | 15° C | 98% | 1005.9 hPa | 0 mm | - | - | - |
| 1778085746 | 15.56° C | 98% | 1005.9 hPa | 0 mm | - | - | - |
| 1778085147 | 15.56° C | 98% | 1005.9 hPa | 0 mm | - | - | - |
| 1778084847 | 15.56° C | 98% | 1005.9 hPa | 0 mm | - | - | - |
| 1778084547 | 15° C | 98% | 1005.6 hPa | 0 mm | - | - | - |
| 1778084247 | 15.56° C | 98% | 1005.9 hPa | 0 mm | - | - | - |
| 1778083947 | 14.44° C | 98% | 1005.6 hPa | 0 mm | - | - | - |
| 1778083647 | 14.44° C | 98% | 1005.6 hPa | 0 mm | - | - | - |
| 1778083048 | 14.44° C | 98% | 1005.6 hPa | 0 mm | - | - | - |
| 1778082748 | 15° C | 98% | 1005.2 hPa | 0 mm | - | - | - |
| 1778082448 | 15° C | 99% | 1005.6 hPa | 0 mm | - | - | - |
| 1778082148 | 15.56° C | 98% | 1005.2 hPa | 0 mm | - | - | - |
| 1778081549 | 15° C | 99% | 1005.2 hPa | 0 mm | - | - | - |
| 1778081249 | 15.56° C | 99% | 1005.2 hPa | 0 mm | - | - | - |
| 1778080949 | 14.44° C | 99% | 1005.2 hPa | 0 mm | - | - | - |
| 1778080649 | 14.44° C | 99% | 1005.2 hPa | 0 mm | - | - | - |
| 1778080349 | 15° C | 99% | 1005.2 hPa | 0 mm | - | - | - |
| 1778079749 | 15° C | 99% | 1004.9 hPa | 0 mm | - | - | - |
| 1778079449 | 14.44° C | 99% | 1004.9 hPa | 0 mm | - | - | - |
| 1778079151 | 15° C | 99% | 1004.9 hPa | 0 mm | - | - | - |
| 1778078850 | 13.89° C | 99% | 1004.9 hPa | 0 mm | - | - | - |
| 1778078550 | 14.44° C | 98% | 1004.9 hPa | 0.51 mm | - | - | - |
| 1778078250 | 15° C | 98% | 1004.5 hPa | 0.51 mm | - | - | - |
* Rain latest hour (hover to see other rain measurements)
** Current wind speed in m/s (hover to see current wind gust speed)